S-NET A (43188 NORAD) Tracking and Keplerian Element Data

This shows tracking and keplerian element data for the satellite.

Feedback or suggestion? Click here.




ElementValue
Catalog43188
NameS-NET A
Epoch Orbit5771
Epoch Day53.22356853
Epoch Year2019
RAAN323.3317
Inclination97.7166
Eccentricity0.0012026
Argument of Perigee42.1839
Mean Anonmoly318.0306
Mean Motion14.96583744
Decay Rate6.63E-06
L11 43188U 18014J 19053.22356853 .00000663 00000-0 63248-4 0 9992
L22 43188 97.7166 323.3317 0012026 42.1839 318.0306 14.96583744 57714

Live tracking and technical data element details for S-NET A (NORAD 43188). S-NET A can be tracked NOW for your location showing map with azimuth and elevation plus other details from your city location.

Track the satellite on the map from your city or location and see movement details for azimuth, elevation, latitude, longitude, range, height, and movement on the map or in text.







IsCatalogInMostPopularTable: catalog: 43188, numindb: 174
Update: records affected: 1



GetName: 43188 S-NET A

Hit Count: updated at: Fri, 22 Feb 2019 22:09:38 GMT